QPF
0.01 0.01 0.01 0.00 0.00 0.00 0.00 0.01 0.01 0.01 0.01 0.02 0.02 0.02 0.01 0.01 0.01 0.01 0.01 0.02 0.03 0.04 0.04 0.04 0.05 0.06 0.04 0.03 0.03 0.03 0.03 0.02 0.02 0.02 0.02 0.01 0.01 0.02 0.01 0.02 0.01 0.02 0.02 0.02
0.01 0.00 0.00 0.00 0.00 0.00 0.00 0.01 0.01 0.01 0.02 0.01 0.01 0.01 0.01 0.01 0.01 0.01 0.01 0.02 0.03 0.04 0.04 0.04 0.04 0.05 0.05 0.05 0.04 0.04 0.04 0.03 0.02 0.01 0.02 0.02 0.02 0.02 0.01 0.01 0.02 0.02 0.03 0.03
0.01 0.00 0.01 0.01 0.01 0.00 0.00 0.01 0.02 0.02 0.01 0.01 0.01 0.01 0.01 0.01 0.00 0.01 0.02 0.01 0.03 0.04 0.04 0.03 0.03 0.04 0.04 0.04 0.03 0.03 0.03 0.02 0.01 0.02 0.02 0.03 0.03 0.03 0.03 0.03 0.02 0.02 0.03 0.03
0.00 0.01 0.01 0.01 0.01 0.01 0.01 0.01 0.01 0.02 0.01 0.01 0.01 0.01 0.01 0.00 0.00 0.00 0.02 0.01 0.02 0.02 0.03 0.03 0.03 0.02 0.02 0.02 0.01 0.01 0.01 0.01 0.01 0.02 0.04 0.05 0.06 0.06 0.05 0.04 0.03 0.02 0.02 0.02
0.01 0.01 0.01 0.01 0.00 0.01 0.02 0.02 0.01 0.01 0.01 0.01 0.00 0.01 0.01 0.00 0.00 0.00 0.02 0.02 0.01 0.01 0.01 0.02 0.02 0.01 0.02 0.02 0.02 0.01 0.01 0.00 0.01 0.01 0.02 0.03 0.04 0.04 0.05 0.04 0.03 0.02 0.02 0.02
0.01 0.01 0.01 0.01 0.01 0.01 0.02 0.03 0.01 0.01 0.01 0.01 0.01 0.02 0.02 0.01 0.01 0.01 0.01 0.01 0.01 0.01 0.01 0.01 0.01 0.01 0.02 0.01 0.02 0.02 0.01 0.01 0.01 0.01 0.02 0.03 0.03 0.02 0.03 0.02 0.01 0.01 0.01 0.01
0.01 0.01 0.01 0.01 0.01 0.01 0.04 0.03 0.01 0.01 0.01 0.02 0.02 0.02 0.03 0.02 0.02 0.01 0.01 0.01 0.01 0.01 0.01 0.01 0.01 0.01 0.02 0.01 0.01 0.01 0.01 0.01 0.01 0.01 0.01 0.01 0.02 0.01 0.01 0.01 0.01 0.01 0.01 0.01
0.01 0.01 0.01 0.00 0.01 0.02 0.03 0.01 0.01 0.01 0.01 0.01 0.01 0.01 0.02 0.01 0.01 0.01 0.01 0.01 0.01 0.01 0.02 0.02 0.02 0.02 0.03 0.02 0.01 0.01 0.01 0.02 0.01 0.01 0.01 0.00 0.01 0.01 0.01 0.01 0.01 0.01 0.01 0.01
0.01 0.02 0.01 0.00 0.01 0.01 0.01 0.01 0.01 0.01 0.01 0.01 0.01 0.02 0.02 0.01 0.01 0.01 0.01 0.01 0.01 0.01 0.02 0.02 0.02 0.02 0.02 0.02 0.01 0.01 0.01 0.01 0.00 0.01 0.01 0.01 0.01 0.01 0.01 0.02 0.01 0.01 0.01 0.00
0.01 0.01 0.00 0.00 0.00 0.00 0.01 0.01 0.00 0.01 0.01 0.01 0.01 0.01 0.01 0.01 0.01 0.02 0.01 0.01 0.01 0.01 0.02 0.02 0.01 0.01 0.01 0.01 0.01 0.01 0.01 0.01 0.01 0.01 0.01 0.01 0.01 0.01 0.01 0.02 0.01 0.01 0.01 0.00
0.01 0.00 0.00 0.00 0.00 0.00 0.00 0.00 0.00 0.01 0.01 0.01 0.01 0.00 0.01 0.01 0.01 0.01 0.01 0.01 0.01 0.01 0.02 0.02 0.02 0.02 0.02 0.01 0.01 0.01 0.01 0.01 0.01 0.01 0.01 0.01 0.01 0.01 0.02 0.01 0.01 0.01 0.00 0.00
0.01 0.01 0.01 0.00 0.00 0.00 0.00 0.00 0.00 0.00 0.01 0.01 0.01 0.01 0.00 0.01 0.01 0.01 0.01 0.01 0.01 0.01 0.01 0.02 0.02 0.02 0.02 0.02 0.01 0.01 0.01 0.01 0.01 0.01 0.01 0.02 0.01 0.01 0.01 0.01 0.01 0.01 0.00 0.00
0.01 0.01 0.01 0.01 0.01 0.00 0.00 0.00 0.00 0.00 0.00 0.01 0.01 0.01 0.00 0.00 0.00 0.01 0.01 0.01 0.01 0.01 0.01 0.02 0.02 0.02 0.02 0.02 0.01 0.01 0.01 0.01 0.01 0.01 0.01 0.01 0.01 0.01 0.00 0.00 0.01 0.01 0.01 0.00
0.00 0.00 0.00 0.00 0.00 0.00 0.01 0.01 0.00 0.00 0.00 0.01 0.01 0.00 0.00 0.00 0.01 0.00 0.00 0.00 0.01 0.01 0.01 0.01 0.01 0.02 0.01 0.01 0.01 0.01 0.01 0.01 0.01 0.00 0.01 0.01 0.01 0.01 0.00 0.01 0.01 0.01 0.01 0.01
0.00 0.00 0.00 0.00 0.00 0.00 0.01 0.02 0.01 0.01 0.00 0.00 0.00 0.00 0.00 0.00 0.00 0.00 0.00 0.00 0.00 0.01 0.01 0.01 0.02 0.02 0.01 0.01 0.00 0.01 0.01 0.01 0.00 0.00 0.00 0.01 0.01 0.01 0.01 0.01 0.01 0.01 0.01 0.01
0.00 0.00 0.00 0.00 0.00 0.00 0.01 0.02 0.03 0.02 0.01 0.00 0.00 0.00 0.00 0.00 0.00 0.00 0.01 0.00 0.00 0.01 0.01 0.01 0.02 0.02 0.01 0.01 0.00 0.00 0.01 0.01 0.01 0.00 0.00 0.00 0.01 0.01 0.01 0.01 0.01 0.01 0.01 0.01
0.01 0.01 0.00 0.00 0.00 0.00 0.00 0.01 0.02 0.02 0.01 0.00 0.00 0.00 0.00 0.00 0.00 0.01 0.01 0.01 0.01 0.01 0.01 0.02 0.02 0.01 0.01 0.01 0.00 0.00 0.00 0.00 0.01 0.00 0.00 0.01 0.01 0.01 0.01 0.01 0.01 0.01 0.02 0.01
0.01 0.01 0.01 0.01 0.00 0.00 0.00 0.01 0.01 0.02 0.02 0.01 0.00 0.00 0.01 0.00 0.00 0.01 0.00 0.01 0.01 0.02 0.02 0.03 0.02 0.01 0.01 0.01 0.01 0.01 0.00 0.00 0.00 0.00 0.01 0.02 0.01 0.01 0.01 0.01 0.01 0.01 0.01 0.01
0.01 0.01 0.01 0.01 0.00 0.00 0.01 0.01 0.01 0.01 0.01 0.01 0.01 0.01 0.01 0.00 0.00 0.01 0.01 0.01 0.01 0.02 0.02 0.02 0.02 0.01 0.02 0.02 0.01 0.01 0.00 0.01 0.01 0.01 0.02 0.02 0.02 0.01 0.01 0.01 0.02 0.01 0.01 0.00
0.01 0.01 0.01 0.01 0.00 0.00 0.01 0.01 0.01 0.01 0.01 0.01 0.01 0.01 0.00 0.00 0.01 0.01 0.01 0.01 0.01 0.02 0.02 0.02 0.01 0.01 0.02 0.02 0.01 0.01 0.01 0.01 0.01 0.01 0.02 0.02 0.02 0.02 0.02 0.02 0.02 0.02 0.01 0.01
0.01 0.01 0.01 0.01 0.00 0.00 0.01 0.01 0.01 0.01 0.01 0.01 0.01 0.01 0.00 0.01 0.01 0.01 0.01 0.01 0.01 0.02 0.02 0.02 0.01 0.01 0.02 0.01 0.01 0.01 0.01 0.01 0.02 0.02 0.02 0.02 0.02 0.02 0.02 0.02 0.02 0.01 0.01 0.01
0.02 0.02 0.02 0.01 0.01 0.01 0.01 0.01 0.01 0.01 0.01 0.00 0.00 0.01 0.01 0.01 0.01 0.01 0.01 0.02 0.02 0.02 0.02 0.01 0.00 0.01 0.02 0.01 0.00 0.00 0.01 0.01 0.02 0.02 0.03 0.03 0.03 0.03 0.02 0.02 0.02 0.03 0.03 0.02
0.02 0.02 0.01 0.01 0.01 0.01 0.01 0.01 0.01 0.01 0.00 0.00 0.00 0.01 0.02 0.02 0.01 0.02 0.03 0.03 0.02 0.02 0.01 0.01 0.00 0.01 0.01 0.00 0.00 0.00 0.01 0.01 0.01 0.01 0.02 0.03 0.03 0.03 0.02 0.02 0.03 0.04 0.04 0.02
0.01 0.01 0.02 0.01 0.01 0.01 0.00 0.00 0.00 0.01 0.01 0.01 0.01 0.02 0.02 0.01 0.01 0.02 0.04 0.04 0.02 0.01 0.00 0.01 0.00 0.01 0.01 0.00 0.00 0.01 0.01 0.01 0.01 0.01 0.01 0.02 0.02 0.02 0.03 0.03 0.03 0.03 0.03 0.02
0.01 0.01 0.01 0.01 0.00 0.00 0.00 0.00 0.00 0.01 0.01 0.01 0.01 0.01 0.01 0.01 0.02 0.03 0.03 0.02 0.01 0.01 0.01 0.01 0.00 0.01 0.00 0.01 0.00 0.01 0.01 0.01 0.01 0.01 0.02 0.03 0.03 0.03 0.04 0.03 0.03 0.03 0.03 0.02
0.02 0.01 0.01 0.01 0.00 0.00 0.00 0.00 0.01 0.01 0.01 0.02 0.02 0.02 0.02 0.02 0.04 0.03 0.02 0.01 0.01 0.01 0.01 0.00 0.00 0.00 0.01 0.01 0.00 0.00 0.01 0.01 0.01 0.02 0.02 0.02 0.02 0.02 0.02 0.02 0.02 0.02 0.02 0.02
0.02 0.02 0.01 0.01 0.01 0.01 0.01 0.01 0.01 0.01 0.01 0.01 0.01 0.01 0.02 0.03 0.04 0.01 0.01 0.01 0.01 0.01 0.01 0.01 0.00 0.01 0.01 0.01 0.01 0.01 0.01 0.01 0.01 0.02 0.02 0.02 0.01 0.01 0.01 0.01 0.02 0.02 0.02 0.02
MSLP
1008.25 1008.56 1008.81 1009.07 1009.41 1009.87 1010.47 1011.21 1012.03 1012.90 1013.73 1014.46 1015.02 1015.37 1015.50 1015.42 1015.17 1014.80 1014.37 1013.94 1013.57 1013.30 1013.14 1013.09 1013.16 1013.33 1013.57 1013.86 1014.19 1014.55 1014.91 1015.29 1015.68 1016.07 1016.46 1016.84 1017.21 1017.55 1017.85 1018.09 1018.27 1018.36 1018.37 1018.29
1008.21 1008.51 1008.72 1008.92 1009.15 1009.49 1009.96 1010.57 1011.30 1012.10 1012.92 1013.68 1014.31 1014.78 1015.05 1015.12 1015.02 1014.78 1014.46 1014.11 1013.80 1013.57 1013.43 1013.42 1013.52 1013.72 1014.00 1014.34 1014.71 1015.10 1015.49 1015.87 1016.25 1016.63 1016.99 1017.36 1017.71 1018.05 1018.35 1018.61 1018.81 1018.94 1018.97 1018.91
1008.13 1008.43 1008.61 1008.75 1008.89 1009.11 1009.45 1009.93 1010.55 1011.27 1012.05 1012.82 1013.51 1014.08 1014.48 1014.70 1014.75 1014.65 1014.45 1014.20 1013.96 1013.78 1013.68 1013.70 1013.83 1014.06 1014.37 1014.74 1015.15 1015.56 1015.96 1016.34 1016.70 1017.05 1017.39 1017.72 1018.05 1018.36 1018.67 1018.93 1019.15 1019.30 1019.36 1019.33
1008.00 1008.30 1008.47 1008.56 1008.64 1008.76 1008.98 1009.34 1009.85 1010.49 1011.22 1011.98 1012.73 1013.38 1013.91 1014.27 1014.46 1014.51 1014.44 1014.29 1014.13 1014.01 1013.96 1014.00 1014.15 1014.40 1014.73 1015.12 1015.54 1015.96 1016.36 1016.73 1017.07 1017.38 1017.67 1017.95 1018.24 1018.52 1018.80 1019.06 1019.29 1019.45 1019.54 1019.53
1007.80 1008.11 1008.28 1008.35 1008.38 1008.43 1008.56 1008.83 1009.24 1009.80 1010.49 1011.25 1012.03 1012.76 1013.40 1013.89 1014.23 1014.41 1014.47 1014.43 1014.36 1014.29 1014.28 1014.35 1014.51 1014.77 1015.11 1015.51 1015.93 1016.34 1016.73 1017.08 1017.38 1017.65 1017.89 1018.12 1018.35 1018.58 1018.82 1019.06 1019.28 1019.45 1019.55 1019.57
1007.53 1007.85 1008.03 1008.10 1008.10 1008.11 1008.19 1008.38 1008.73 1009.23 1009.88 1010.64 1011.45 1012.24 1012.97 1013.58 1014.05 1014.36 1014.54 1014.61 1014.62 1014.61 1014.64 1014.73 1014.90 1015.16 1015.50 1015.89 1016.31 1016.71 1017.09 1017.41 1017.69 1017.91 1018.10 1018.27 1018.44 1018.63 1018.82 1019.03 1019.22 1019.39 1019.51 1019.55
1007.22 1007.54 1007.72 1007.80 1007.80 1007.80 1007.85 1008.00 1008.30 1008.77 1009.39 1010.14 1010.96 1011.81 1012.61 1013.32 1013.90 1014.33 1014.61 1014.77 1014.86 1014.91 1014.97 1015.08 1015.26 1015.53 1015.86 1016.25 1016.66 1017.06 1017.42 1017.73 1017.99 1018.18 1018.33 1018.46 1018.58 1018.72 1018.87 1019.04 1019.21 1019.38 1019.50 1019.57
1006.89 1007.19 1007.38 1007.47 1007.49 1007.49 1007.53 1007.67 1007.94 1008.38 1008.98 1009.72 1010.56 1011.44 1012.29 1013.07 1013.73 1014.25 1014.62 1014.87 1015.02 1015.12 1015.22 1015.35 1015.54 1015.81 1016.14 1016.53 1016.93 1017.33 1017.70 1018.01 1018.26 1018.45 1018.58 1018.69 1018.78 1018.89 1019.01 1019.15 1019.31 1019.47 1019.60 1019.69
1006.60 1006.88 1007.06 1007.16 1007.19 1007.21 1007.26 1007.39 1007.65 1008.07 1008.65 1009.37 1010.21 1011.10 1011.98 1012.80 1013.52 1014.10 1014.54 1014.85 1015.06 1015.20 1015.33 1015.49 1015.69 1015.96 1016.29 1016.68 1017.10 1017.51 1017.88 1018.21 1018.47 1018.67 1018.81 1018.92 1019.01 1019.11 1019.22 1019.36 1019.52 1019.68 1019.83 1019.93
1006.41 1006.65 1006.82 1006.92 1006.97 1007.00 1007.06 1007.19 1007.44 1007.84 1008.40 1009.10 1009.91 1010.78 1011.67 1012.50 1013.25 1013.87 1014.35 1014.71 1014.96 1015.15 1015.31 1015.48 1015.69 1015.97 1016.30 1016.70 1017.11 1017.54 1017.93 1018.28 1018.57 1018.79 1018.96 1019.09 1019.21 1019.32 1019.45 1019.61 1019.78 1019.96 1020.12 1020.24
1006.39 1006.58 1006.72 1006.82 1006.86 1006.90 1006.96 1007.10 1007.34 1007.72 1008.24 1008.90 1009.67 1010.52 1011.37 1012.20 1012.94 1013.58 1014.09 1014.47 1014.76 1014.97 1015.15 1015.34 1015.57 1015.84 1016.18 1016.56 1016.98 1017.41 1017.82 1018.18 1018.50 1018.76 1018.96 1019.14 1019.29 1019.44 1019.61 1019.79 1020.00 1020.20 1020.39 1020.54
1006.56 1006.70 1006.81 1006.88 1006.92 1006.95 1007.01 1007.14 1007.36 1007.71 1008.19 1008.80 1009.52 1010.31 1011.13 1011.91 1012.64 1013.27 1013.78 1014.18 1014.49 1014.72 1014.92 1015.12 1015.35 1015.62 1015.94 1016.32 1016.72 1017.13 1017.54 1017.91 1018.24 1018.53 1018.77 1018.99 1019.18 1019.39 1019.60 1019.83 1020.07 1020.32 1020.54 1020.71
1006.91 1007.01 1007.08 1007.12 1007.13 1007.15 1007.20 1007.30 1007.50 1007.81 1008.24 1008.80 1009.46 1010.19 1010.94 1011.68 1012.37 1012.97 1013.48 1013.89 1014.20 1014.45 1014.66 1014.87 1015.09 1015.35 1015.65 1016.00 1016.37 1016.75 1017.14 1017.50 1017.83 1018.13 1018.39 1018.64 1018.88 1019.12 1019.38 1019.66 1019.95 1020.23 1020.49 1020.69
1007.41 1007.45 1007.47 1007.47 1007.46 1007.45 1007.47 1007.55 1007.72 1007.99 1008.38 1008.88 1009.47 1010.13 1010.82 1011.50 1012.14 1012.72 1013.21 1013.61 1013.93 1014.19 1014.41 1014.62 1014.83 1015.07 1015.34 1015.65 1015.98 1016.32 1016.66 1016.99 1017.30 1017.59 1017.87 1018.13 1018.40 1018.68 1018.98 1019.30 1019.62 1019.94 1020.22 1020.46
1007.97 1007.95 1007.92 1007.87 1007.81 1007.77 1007.77 1007.83 1007.96 1008.20 1008.54 1008.99 1009.52 1010.11 1010.74 1011.36 1011.95 1012.49 1012.96 1013.35 1013.68 1013.94 1014.17 1014.38 1014.59 1014.81 1015.05 1015.31 1015.59 1015.88 1016.17 1016.46 1016.73 1017.00 1017.27 1017.54 1017.82 1018.13 1018.45 1018.79 1019.14 1019.48 1019.80 1020.05
1008.49 1008.41 1008.32 1008.21 1008.12 1008.04 1008.01 1008.04 1008.16 1008.37 1008.67 1009.07 1009.55 1010.08 1010.65 1011.22 1011.76 1012.26 1012.71 1013.10 1013.42 1013.70 1013.94 1014.15 1014.36 1014.57 1014.78 1015.01 1015.24 1015.48 1015.72 1015.96 1016.20 1016.44 1016.69 1016.96 1017.25 1017.56 1017.90 1018.25 1018.61 1018.97 1019.29 1019.56
1008.89 1008.74 1008.58 1008.42 1008.28 1008.17 1008.12 1008.14 1008.24 1008.43 1008.71 1009.08 1009.52 1010.00 1010.52 1011.04 1011.54 1012.01 1012.43 1012.81 1013.14 1013.43 1013.68 1013.91 1014.12 1014.33 1014.53 1014.73 1014.94 1015.14 1015.34 1015.54 1015.75 1015.97 1016.21 1016.46 1016.75 1017.07 1017.41 1017.77 1018.13 1018.49 1018.81 1019.09
1009.11 1008.88 1008.65 1008.43 1008.25 1008.12 1008.05 1008.06 1008.16 1008.35 1008.63 1008.97 1009.38 1009.84 1010.31 1010.79 1011.25 1011.70 1012.10 1012.47 1012.81 1013.11 1013.38 1013.63 1013.86 1014.08 1014.28 1014.48 1014.67 1014.85 1015.03 1015.22 1015.41 1015.61 1015.84 1016.10 1016.39 1016.70 1017.04 1017.40 1017.76 1018.11 1018.43 1018.71
1009.14 1008.82 1008.52 1008.25 1008.02 1007.87 1007.80 1007.82 1007.93 1008.13 1008.41 1008.75 1009.15 1009.58 1010.02 1010.47 1010.91 1011.32 1011.71 1012.08 1012.42 1012.73 1013.02 1013.29 1013.55 1013.79 1014.01 1014.22 1014.42 1014.60 1014.78 1014.96 1015.15 1015.36 1015.59 1015.86 1016.15 1016.47 1016.82 1017.18 1017.53 1017.87 1018.18 1018.45
1008.99 1008.60 1008.23 1007.90 1007.65 1007.49 1007.42 1007.46 1007.59 1007.80 1008.09 1008.44 1008.84 1009.25 1009.68 1010.10 1010.51 1010.90 1011.28 1011.64 1011.98 1012.31 1012.62 1012.91 1013.20 1013.46 1013.71 1013.94 1014.15 1014.35 1014.54 1014.73 1014.93 1015.15 1015.40 1015.68 1015.98 1016.32 1016.67 1017.03 1017.39 1017.73 1018.03 1018.29
1008.74 1008.27 1007.85 1007.49 1007.21 1007.05 1006.99 1007.04 1007.19 1007.43 1007.74 1008.10 1008.49 1008.89 1009.30 1009.71 1010.10 1010.47 1010.83 1011.18 1011.52 1011.86 1012.18 1012.50 1012.80 1013.09 1013.36 1013.61 1013.84 1014.06 1014.27 1014.47 1014.69 1014.93 1015.19 1015.48 1015.81 1016.16 1016.53 1016.90 1017.26 1017.60 1017.91 1018.17
1008.45 1007.93 1007.46 1007.07 1006.79 1006.62 1006.57 1006.64 1006.81 1007.07 1007.39 1007.75 1008.14 1008.54 1008.94 1009.32 1009.69 1010.05 1010.39 1010.73 1011.07 1011.40 1011.73 1012.06 1012.38 1012.68 1012.97 1013.23 1013.48 1013.71 1013.93 1014.14 1014.37 1014.62 1014.90 1015.20 1015.54 1015.91 1016.30 1016.69 1017.06 1017.42 1017.74 1018.02
1008.19 1007.63 1007.13 1006.73 1006.45 1006.28 1006.24 1006.32 1006.50 1006.76 1007.09 1007.45 1007.83 1008.22 1008.60 1008.96 1009.31 1009.64 1009.97 1010.30 1010.62 1010.95 1011.28 1011.61 1011.94 1012.25 1012.54 1012.81 1013.06 1013.29 1013.51 1013.73 1013.96 1014.21 1014.48 1014.80 1015.15 1015.53 1015.93 1016.34 1016.74 1017.12 1017.47 1017.78
1007.99 1007.42 1006.92 1006.52 1006.23 1006.06 1006.03 1006.10 1006.28 1006.54 1006.85 1007.20 1007.56 1007.92 1008.28 1008.61 1008.94 1009.25 1009.56 1009.86 1010.18 1010.50 1010.82 1011.15 1011.47 1011.78 1012.07 1012.33 1012.58 1012.80 1013.02 1013.23 1013.45 1013.69 1013.96 1014.28 1014.63 1015.01 1015.43 1015.86 1016.29 1016.70 1017.08 1017.43
1007.88 1007.32 1006.83 1006.43 1006.14 1005.98 1005.93 1006.00 1006.15 1006.39 1006.67 1006.99 1007.32 1007.65 1007.96 1008.27 1008.56 1008.84 1009.12 1009.41 1009.71 1010.01 1010.33 1010.65 1010.97 1011.27 1011.56 1011.82 1012.06 1012.27 1012.48 1012.68 1012.88 1013.11 1013.37 1013.68 1014.02 1014.41 1014.83 1015.28 1015.73 1016.17 1016.59 1016.98
1007.84 1007.31 1006.84 1006.46 1006.18 1006.01 1005.94 1005.98 1006.11 1006.30 1006.54 1006.81 1007.09 1007.37 1007.64 1007.89 1008.15 1008.40 1008.65 1008.91 1009.19 1009.48 1009.79 1010.10 1010.42 1010.72 1011.00 1011.27 1011.50 1011.72 1011.92 1012.11 1012.31 1012.53 1012.78 1013.07 1013.41 1013.80 1014.22 1014.67 1015.14 1015.61 1016.07 1016.49
1007.87 1007.38 1006.94 1006.57 1006.30 1006.12 1006.03 1006.04 1006.12 1006.26 1006.44 1006.64 1006.86 1007.08 1007.29 1007.49 1007.69 1007.90 1008.11 1008.35 1008.60 1008.88 1009.17 1009.48 1009.80 1010.10 1010.40 1010.67 1010.92 1011.15 1011.36 1011.56 1011.77 1011.99 1012.24 1012.53 1012.86 1013.24 1013.67 1014.12 1014.60 1015.08 1015.56 1016.02
Thickness
5715 5717 5716 5712 5710 5710 5707 5705 5700 5700 5697 5697 5697 5697 5696 5695 5694 5691 5689 5686 5684 5682 5681 5680 5680 5679 5678 5676 5675 5673 5671 5668 5666 5663 5661 5659 5656 5654 5652 5649 5647 5644 5642 5639
5708 5714 5712 5707 5707 5707 5704 5703 5701 5698 5693 5700 5699 5697 5693 5691 5690 5688 5686 5685 5683 5681 5679 5677 5677 5676 5675 5674 5672 5670 5668 5666 5665 5663 5660 5657 5654 5651 5648 5646 5644 5641 5639 5637
5704 5711 5707 5699 5705 5704 5703 5703 5700 5693 5693 5695 5691 5688 5688 5688 5687 5685 5684 5683 5681 5679 5678 5676 5676 5674 5672 5672 5670 5667 5665 5664 5663 5661 5658 5655 5653 5650 5646 5643 5641 5638 5635 5633
5704 5699 5685 5701 5711 5708 5701 5699 5699 5695 5694 5692 5689 5689 5689 5688 5685 5683 5682 5681 5679 5678 5676 5675 5675 5673 5672 5671 5668 5665 5664 5662 5661 5659 5656 5654 5651 5647 5644 5641 5638 5636 5633 5630
5699 5695 5695 5700 5704 5702 5695 5691 5695 5692 5690 5691 5691 5688 5687 5686 5685 5682 5681 5679 5678 5677 5676 5674 5673 5671 5669 5668 5666 5664 5662 5660 5659 5657 5654 5651 5649 5645 5642 5639 5636 5634 5631 5628
5695 5687 5684 5694 5703 5705 5697 5686 5693 5691 5687 5687 5686 5681 5682 5683 5682 5680 5678 5677 5676 5675 5674 5672 5670 5669 5666 5664 5663 5661 5660 5658 5656 5654 5652 5649 5646 5643 5641 5637 5634 5632 5630 5627
5690 5686 5692 5697 5701 5698 5681 5682 5690 5689 5687 5685 5682 5682 5681 5681 5679 5677 5676 5675 5674 5672 5670 5669 5668 5666 5663 5661 5659 5659 5658 5656 5653 5651 5649 5646 5643 5640 5638 5635 5633 5630 5628 5625
5686 5681 5681 5692 5693 5685 5684 5688 5688 5686 5684 5682 5681 5680 5679 5677 5676 5674 5673 5672 5671 5668 5667 5667 5665 5662 5660 5658 5657 5656 5654 5652 5650 5648 5647 5645 5641 5638 5636 5634 5631 5629 5626 5623
5685 5683 5686 5690 5688 5687 5687 5684 5684 5683 5681 5679 5677 5676 5675 5673 5672 5671 5670 5669 5668 5666 5664 5663 5662 5660 5657 5656 5655 5653 5650 5648 5647 5645 5643 5642 5639 5637 5635 5634 5633 5631 5628 5625
5677 5680 5682 5683 5682 5681 5682 5680 5681 5680 5679 5677 5673 5673 5671 5669 5668 5667 5666 5665 5665 5663 5661 5660 5659 5658 5656 5654 5652 5649 5647 5646 5645 5643 5641 5639 5638 5638 5636 5634 5632 5630 5627 5623
5669 5672 5674 5674 5674 5674 5674 5675 5675 5675 5674 5672 5670 5669 5667 5665 5664 5663 5663 5662 5662 5660 5659 5658 5657 5655 5654 5652 5649 5646 5645 5644 5643 5642 5640 5638 5636 5634 5634 5630 5628 5625 5625 5621
5661 5664 5664 5664 5667 5668 5667 5667 5667 5667 5667 5667 5666 5663 5662 5661 5660 5659 5659 5658 5657 5656 5656 5655 5654 5652 5651 5650 5647 5644 5642 5641 5642 5641 5640 5639 5637 5633 5627 5625 5621 5618 5614 5612
5656 5659 5660 5659 5660 5661 5660 5661 5662 5661 5660 5659 5659 5659 5657 5656 5656 5655 5655 5655 5654 5653 5653 5652 5651 5649 5648 5647 5645 5641 5640 5639 5640 5640 5639 5638 5637 5634 5630 5624 5618 5615 5612 5608
5648 5648 5647 5648 5650 5652 5653 5654 5654 5655 5655 5654 5653 5652 5652 5651 5651 5650 5650 5651 5651 5651 5650 5650 5648 5647 5647 5645 5642 5640 5639 5638 5637 5637 5638 5637 5636 5634 5631 5628 5625 5622 5615 5608
5639 5640 5640 5641 5642 5643 5644 5645 5644 5645 5645 5646 5646 5645 5645 5644 5645 5646 5647 5648 5648 5647 5647 5646 5645 5644 5644 5642 5640 5638 5638 5638 5636 5636 5636 5636 5634 5633 5631 5628 5626 5624 5621 5614
5630 5632 5633 5632 5632 5634 5635 5635 5636 5636 5637 5637 5638 5638 5638 5639 5640 5641 5642 5642 5642 5642 5643 5642 5641 5641 5641 5639 5637 5637 5637 5633 5631 5634 5635 5634 5633 5632 5630 5627 5624 5622 5620 5617
5620 5620 5622 5623 5624 5626 5627 5628 5629 5630 5630 5630 5631 5632 5633 5634 5634 5635 5636 5638 5638 5639 5639 5638 5637 5638 5638 5637 5635 5637 5637 5634 5628 5631 5632 5632 5630 5629 5627 5625 5623 5621 5619 5615
5614 5615 5616 5616 5618 5619 5620 5622 5624 5624 5624 5625 5626 5626 5627 5627 5627 5629 5631 5633 5633 5635 5635 5634 5634 5633 5634 5633 5632 5634 5635 5635 5633 5631 5630 5628 5627 5626 5625 5623 5621 5619 5617 5614
5606 5607 5609 5609 5611 5612 5613 5614 5616 5618 5619 5620 5619 5619 5621 5622 5624 5625 5626 5627 5628 5629 5629 5631 5627 5629 5629 5629 5628 5629 5632 5632 5631 5629 5627 5623 5622 5624 5622 5620 5618 5617 5615 5612
5598 5599 5600 5602 5604 5604 5605 5606 5608 5610 5612 5613 5613 5614 5615 5617 5619 5621 5622 5623 5625 5626 5626 5625 5624 5625 5626 5626 5623 5628 5629 5629 5628 5626 5624 5623 5621 5620 5618 5617 5615 5613 5611 5609
5589 5591 5592 5594 5595 5596 5597 5599 5600 5602 5605 5607 5607 5607 5609 5611 5614 5616 5617 5619 5621 5621 5621 5620 5622 5623 5623 5622 5618 5625 5626 5625 5624 5623 5621 5619 5618 5616 5615 5614 5612 5610 5608 5606
5581 5582 5584 5585 5587 5588 5590 5592 5594 5596 5598 5600 5601 5603 5604 5605 5608 5611 5613 5615 5617 5615 5617 5621 5622 5619 5618 5615 5621 5623 5623 5621 5620 5620 5618 5616 5614 5612 5612 5610 5608 5606 5605 5602
5573 5575 5577 5579 5580 5582 5584 5587 5589 5591 5592 5594 5596 5598 5600 5602 5605 5607 5609 5613 5614 5611 5613 5618 5615 5611 5609 5615 5620 5620 5619 5617 5616 5616 5615 5613 5612 5609 5608 5606 5605 5603 5600 5598
5566 5568 5570 5573 5575 5577 5578 5582 5584 5586 5588 5590 5593 5595 5596 5599 5602 5606 5608 5606 5606 5606 5610 5611 5608 5607 5605 5614 5616 5616 5616 5615 5614 5614 5613 5611 5609 5608 5606 5604 5602 5600 5598 5595
5560 5563 5565 5566 5568 5572 5574 5577 5579 5581 5583 5587 5589 5592 5595 5597 5599 5601 5603 5605 5603 5603 5607 5607 5605 5604 5607 5611 5612 5612 5612 5612 5612 5611 5609 5608 5607 5605 5603 5601 5599 5597 5595 5593
5555 5558 5560 5561 5563 5566 5570 5573 5576 5578 5580 5582 5585 5589 5591 5594 5596 5597 5599 5601 5602 5600 5604 5606 5606 5604 5607 5608 5609 5608 5608 5607 5607 5607 5606 5605 5603 5602 5600 5598 5596 5594 5592 5589
5551 5553 5555 5558 5560 5563 5566 5568 5571 5574 5576 5578 5580 5583 5586 5589 5591 5593 5595 5597 5599 5600 5601 5603 5604 5604 5604 5605 5605 5604 5604 5604 5603 5602 5602 5600 5599 5597 5596 5593 5592 5590 5588 5586